,,PA_Meas_PMT16A,,PR_Meas_QMR101_102,,RH_Meas_QMH101,,SR_Meas_QMS101,,TA_Meas_QMH101,,GenWind,,GenWind,
time,status,PA,status,PR,status,RH,status,SR,status,TA,status,DirAvg,status,SpdAvg,
2014-08-10, 07:06:04,VALID,917.757,VALID,0,VALID,81.9441,VALID,57.1587,VALID,21.0876,VALID,95,VALID,3.21172,
2014-08-10, 07:07:04,VALID,917.805,VALID,0,VALID,81.7383,VALID,59.8447,VALID,21.1461,VALID,89,VALID,3.34023,
2014-08-10, 07:08:04,VALID,917.691,VALID,0,VALID,81.1665,VALID,62.6382,VALID,21.1852,VALID,61,VALID,4.82461,
2014-08-10, 07:09:04,VALID,917.866,VALID,0,VALID,81.0598,VALID,65.8614,VALID,21.2437,VALID,97,VALID,2.35352,
2014-08-10, 07:10:04,VALID,917.895,VALID,0,VALID,81.0522,VALID,84.1264,VALID,21.2632,VALID,103,VALID,4.02461,
2014-08-10, 07:11:04,VALID,917.928,VALID,0,VALID,81.4714,VALID,70.4814,VALID,21.2827,VALID,53,VALID,1.82148,
2014-08-10, 07:12:04,VALID,917.921,VALID,0,VALID,80.9912,VALID,69.407,VALID,21.3217,VALID,64,VALID,2.64063,
2014-08-10, 07:13:04,VALID,917.848,VALID,0,VALID,81.1436,VALID,70.374,VALID,21.3022,VALID,48,VALID,3.7582,
2014-08-10, 07:14:04,VALID,917.899,VALID,0,VALID,81.075,VALID,71.3409,VALID,21.3429,VALID,60,VALID,3.9918,
2014-08-10, 07:15:04,VALID,917.91,VALID,0,VALID,81.1894,VALID,71.8781,VALID,21.3234,VALID,108,VALID,2.24219,
2014-08-10, 07:16:04,VALID,917.786,VALID,0,VALID,80.7701,VALID,73.5972,VALID,21.3217,VALID,95,VALID,4.65195,
2014-08-10, 07:17:04,VALID,917.832,VALID,0,VALID,80.6557,VALID,84.1264,VALID,21.3608,VALID,92,VALID,3.37266,
2014-08-10, 07:18:04,VALID,917.881,VALID,0,VALID,80.3661,VALID,106.582,VALID,21.4193,VALID,92,VALID,3.96797,
2014-08-10, 07:19:04,VALID,917.886,VALID,0,VALID,80.2517,VALID,100.995,VALID,21.4583,VALID,53,VALID,4.45156,
2014-08-10, 07:20:04,VALID,917.901,VALID,0,VALID,80.8463,VALID,89.9282,VALID,21.4583,VALID,108,VALID,1.84609,
2014-08-10, 07:21:04,VALID,917.915,VALID,0,VALID,80.0916,VALID,119.797,VALID,21.4778,VALID,92,VALID,4.07344,
2014-08-10, 07:22:04,VALID,917.898,VALID,0,VALID,79.7867,VALID,126.028,VALID,21.5363,VALID,96,VALID,3.06172,
2014-08-10, 07:23:04,VALID,917.842,VALID,0,VALID,79.1311,VALID,110.557,VALID,21.5737,VALID,51,VALID,4.56133,
2014-08-10, 07:24:04,VALID,917.963,VALID,0,VALID,79.3826,VALID,129.144,VALID,21.6339,VALID,47,VALID,3.40234,
2014-08-10, 07:25:04,VALID,917.984,VALID,0,VALID,79.5122,VALID,103.144,VALID,21.6534,VALID,81,VALID,3.30977,
2014-08-10, 07:26:04,VALID,918.036,VALID,0,VALID,78.7651,VALID,91.7547,VALID,21.6729,VALID,96,VALID,4.46992,
2014-08-10, 07:27:04,VALID,918.021,VALID,0,VALID,78.6965,VALID,113.243,VALID,21.6908,VALID,83,VALID,2.90703,
2014-08-10, 07:28:04,VALID,918,VALID,0,VALID,78.8109,VALID,126.136,VALID,21.6924,VALID,72,VALID,3.98555,
2014-08-10, 07:29:04,VALID,918.026,VALID,0,VALID,79.2302,VALID,137.525,VALID,21.6713,VALID,92,VALID,2.55664,
2014-08-10, 07:30:04,VALID,917.991,VALID,0,VALID,79.4512,VALID,138.277,VALID,21.6729,VALID,81,VALID,2.51133,
2014-08-10, 07:31:04,VALID,917.879,VALID,0,VALID,78.6355,VALID,143.434,VALID,21.6908,VALID,73,VALID,2.7832,
2014-08-10, 07:32:04,VALID,917.96,VALID,0,VALID,78.4754,VALID,146.765,VALID,21.79,VALID,102,VALID,3.04297,
2014-08-10, 07:33:04,VALID,917.993,VALID,0,VALID,78.201,VALID,149.88,VALID,21.8095,VALID,78,VALID,2.55312,
2014-08-10, 07:34:04,VALID,918.029,VALID,0,VALID,78.323,VALID,154.608,VALID,21.829,VALID,69,VALID,2.8207,
2014-08-10, 07:35:04,VALID,918.06,VALID,0,VALID,78.2315,VALID,158.583,VALID,21.8664,VALID,91,VALID,1.64023,
2014-08-10, 07:36:04,VALID,918.049,VALID,0,VALID,78.8033,VALID,161.914,VALID,21.9266,VALID,102,VALID,1.4332,
2014-08-10, 07:37:04,VALID,918.077,VALID,0,VALID,78.3916,VALID,162.881,VALID,21.9054,VALID,109,VALID,2.99141,
2014-08-10, 07:38:04,VALID,918.145,VALID,0,VALID,77.8808,VALID,164.707,VALID,21.9249,VALID,100,VALID,2.52187,
2014-08-10, 07:39:04,VALID,918.139,VALID,0,VALID,77.0499,VALID,163.955,VALID,21.9835,VALID,97,VALID,3.77617,
2014-08-10, 07:40:04,VALID,918.128,VALID,0,VALID,77.9266,VALID,163.848,VALID,22.0225,VALID,102,VALID,1.79727,
2014-08-10, 07:41:04,VALID,918.123,VALID,0,VALID,77.9113,VALID,163.74,VALID,22.003,VALID,88,VALID,2.70195,
2014-08-10, 07:42:04,VALID,918.128,VALID,0,VALID,78.4373,VALID,163.311,VALID,22.003,VALID,91,VALID,3.12148,
2014-08-10, 07:43:04,VALID,918.137,VALID,0,VALID,78.2162,VALID,108.086,VALID,21.964,VALID,82,VALID,2.30039,
2014-08-10, 07:44:04,VALID,918.146,VALID,0,VALID,78.6889,VALID,114.532,VALID,21.9444,VALID,78,VALID,1.83789,
2014-08-10, 07:45:04,VALID,918.202,VALID,0,VALID,78.6432,VALID,122.161,VALID,21.8859,VALID,92,VALID,3.09727,
2014-08-10, 07:46:04,VALID,918.178,VALID,0,VALID,77.8198,VALID,119.475,VALID,21.9444,VALID,60,VALID,3.1168,
2014-08-10, 07:47:04,VALID,918.223,VALID,0,VALID,77.7055,VALID,183.187,VALID,21.9835,VALID,82,VALID,3.64883,
2014-08-10, 07:48:04,VALID,918.246,VALID,0,VALID,78.1171,VALID,189.204,VALID,22.042,VALID,76,VALID,2.29805,
2014-08-10, 07:49:04,VALID,918.203,VALID,0,VALID,78.4145,VALID,193.931,VALID,22.042,VALID,73,VALID,2.80664,
2014-08-10, 07:50:04,VALID,918.227,VALID,0,VALID,78.7575,VALID,198.981,VALID,22.042,VALID,101,VALID,1.50664,
2014-08-10, 07:51:04,VALID,918.195,VALID,0,VALID,78.1553,VALID,205.535,VALID,22.0615,VALID,85,VALID,2.58672,
2014-08-10, 07:52:04,VALID,918.177,VALID,0,VALID,77.6521,VALID,212.948,VALID,22.1005,VALID,55,VALID,4.17227,
2014-08-10, 07:53:04,VALID,918.198,VALID,0,VALID,77.6902,VALID,194.146,VALID,22.1591,VALID,86,VALID,2.6168,
2014-08-10, 07:54:04,VALID,918.221,VALID,0,VALID,77.7817,VALID,221.544,VALID,22.1786,VALID,104,VALID,2.05859,
2014-08-10, 07:55:04,VALID,918.25,VALID,0,VALID,77.9875,VALID,225.412,VALID,22.1786,VALID,131,VALID,3.34766,
2014-08-10, 07:56:04,VALID,918.255,VALID,0,VALID,78.384,VALID,228.527,VALID,22.1981,VALID,73,VALID,1.71133,
2014-08-10, 07:57:04,VALID,918.304,VALID,0,VALID,78.4602,VALID,230.891,VALID,22.2762,VALID,67,VALID,1.86797,
2014-08-10, 07:58:04,VALID,918.33,VALID,0,VALID,77.492,VALID,232.288,VALID,22.333,VALID,126,VALID,1.96836,
2014-08-10, 07:59:04,VALID,918.353,VALID,0,VALID,78.1095,VALID,233.685,VALID,22.3737,VALID,130,VALID,0.978516,
2014-08-10, 08:00:04,VALID,918.371,VALID,0,VALID,76.196,VALID,234.544,VALID,22.4128,VALID,92,VALID,3.22266,
2014-08-10, 08:01:04,VALID,918.393,VALID,0,VALID,77.6902,VALID,246.577,VALID,22.4111,VALID,80,VALID,3.55391,
2014-08-10, 08:02:04,VALID,918.404,VALID,0,VALID,77.0651,VALID,176.526,VALID,22.372,VALID,121,VALID,3.41602,
2014-08-10, 08:03:04,VALID,918.395,VALID,0,VALID,77.37,VALID,118.615,VALID,22.3347,VALID,105,VALID,3.01367,
2014-08-10, 08:04:04,VALID,918.399,VALID,0,VALID,77.5759,VALID,237.338,VALID,22.2957,VALID,94,VALID,3.4625,
2014-08-10, 08:05:04,VALID,918.369,VALID,0,VALID,76.5772,VALID,211.659,VALID,22.2371,VALID,98,VALID,3.3875,
2014-08-10, 08:06:04,VALID,918.425,VALID,0,VALID,77.1337,VALID,155.252,VALID,22.2762,VALID,95,VALID,3.25312,
2014-08-10, 08:07:04,VALID,918.427,VALID,0,VALID,76.0969,VALID,125.491,VALID,22.2762,VALID,79,VALID,2.17734,
2014-08-10, 08:08:04,VALID,918.398,VALID,0,VALID,78.1476,VALID,120.656,VALID,22.2567,VALID,94,VALID,2.55508,
2014-08-10, 08:09:04,VALID,918.38,VALID,0,VALID,77.3243,VALID,111.846,VALID,22.1786,VALID,102,VALID,4.0668,
2014-08-10, 08:10:04,VALID,918.396,VALID,0,VALID,78.3382,VALID,115.069,VALID,22.1201,VALID,110,VALID,2.80586,
2014-08-10, 08:11:04,VALID,918.423,VALID,0,VALID,78.3763,VALID,120.764,VALID,22.0225,VALID,93,VALID,3.83477,
2014-08-10, 08:12:04,VALID,918.457,VALID,0,VALID,79.1311,VALID,119.152,VALID,22.003,VALID,129,VALID,3.78594,
2014-08-10, 08:13:04,VALID,918.473,VALID,0,VALID,78.8261,VALID,118.4,VALID,21.9444,VALID,122,VALID,3.16445,
2014-08-10, 08:14:04,VALID,918.428,VALID,0,VALID,79.7181,VALID,116.574,VALID,21.9444,VALID,57,VALID,2.38672,
2014-08-10, 08:15:04,VALID,918.473,VALID,0,VALID,79.5885,VALID,121.731,VALID,21.9054,VALID,100,VALID,2.58086,
2014-08-10, 08:16:04,VALID,918.487,VALID,0,VALID,78.7118,VALID,143.326,VALID,21.9444,VALID,115,VALID,3.43867,
2014-08-10, 08:17:04,VALID,918.521,VALID,0,VALID,79.2607,VALID,129.252,VALID,21.964,VALID,78,VALID,2.06562,
2014-08-10, 08:18:04,VALID,918.489,VALID,0,VALID,78.8642,VALID,119.582,VALID,21.9444,VALID,115,VALID,4.32031,
2014-08-10, 08:19:04,VALID,918.496,VALID,0,VALID,79.0167,VALID,135.698,VALID,21.964,VALID,80,VALID,3.45547,
2014-08-10, 08:20:04,VALID,918.497,VALID,0,VALID,78.9328,VALID,180.823,VALID,21.964,VALID,82,VALID,3.05508,
2014-08-10, 08:21:04,VALID,918.559,VALID,0,VALID,79.5732,VALID,207.684,VALID,21.9835,VALID,72,VALID,2.42266,
2014-08-10, 08:22:04,VALID,918.54,VALID,0,VALID,78.7423,VALID,214.99,VALID,22.0225,VALID,108,VALID,3.80039,
2014-08-10, 08:23:04,VALID,918.533,VALID,0,VALID,78.6889,VALID,143.971,VALID,22.081,VALID,91,VALID,2.13789,
2014-08-10, 08:24:04,VALID,918.586,VALID,0,VALID,79.375,VALID,186.088,VALID,22.1217,VALID,95,VALID,2.42734,
2014-08-10, 08:25:04,VALID,918.542,VALID,0,VALID,79.2683,VALID,249.478,VALID,22.1201,VALID,51,VALID,3.38828,
2014-08-10, 08:26:04,VALID,918.617,VALID,0,VALID,79.0624,VALID,263.123,VALID,22.2176,VALID,90,VALID,2.6625,
2014-08-10, 08:27:04,VALID,918.63,VALID,0,VALID,78.971,VALID,323.935,VALID,22.2567,VALID,111,VALID,2.91016,
2014-08-10, 08:28:04,VALID,918.601,VALID,0,VALID,78.8185,VALID,352.944,VALID,22.3542,VALID,78,VALID,2.30703,
2014-08-10, 08:29:04,VALID,918.656,VALID,0,VALID,77.7741,VALID,366.374,VALID,22.473,VALID,121,VALID,3.10898,
2014-08-10, 08:30:04,VALID,918.693,VALID,0,VALID,78.1705,VALID,381.953,VALID,22.5672,VALID,103,VALID,1.63242,
2014-08-10, 08:31:04,VALID,918.704,VALID,0,VALID,76.0817,VALID,390.978,VALID,22.7445,VALID,98,VALID,2.29609,
2014-08-10, 08:32:04,VALID,918.621,VALID,0,VALID,76.5925,VALID,395.169,VALID,22.8209,VALID,77,VALID,2.90039,
2014-08-10, 08:33:04,VALID,918.698,VALID,0,VALID,77.2176,VALID,403.334,VALID,22.9007,VALID,70,VALID,1.91328,
2014-08-10, 08:34:04,VALID,918.689,VALID,0,VALID,76.3866,VALID,394.631,VALID,22.977,VALID,122,VALID,1.8375,
2014-08-10, 08:35:04,VALID,918.754,VALID,0,VALID,75.2279,VALID,396.243,VALID,23.0373,VALID,122,VALID,3.32656,
2014-08-10, 08:36:04,VALID,918.737,VALID,0,VALID,77.1566,VALID,162.988,VALID,23.0763,VALID,76,VALID,1.96211,
2014-08-10, 08:37:04,VALID,918.787,VALID,0,VALID,75.8149,VALID,372.498,VALID,23.1154,VALID,89,VALID,2.33047,
2014-08-10, 08:38:04,VALID,918.774,VALID,0,VALID,75.5633,VALID,400.541,VALID,23.0568,VALID,104,VALID,3.80156,
2014-08-10, 08:39:04,VALID,918.768,VALID,0,VALID,75.6929,VALID,360.895,VALID,23.0568,VALID,68,VALID,2.71719,
2014-08-10, 08:40:04,VALID,918.784,VALID,0,VALID,76.1579,VALID,402.797,VALID,23.0746,VALID,75,VALID,2.61758,
2014-08-10, 08:41:04,VALID,918.812,VALID,0,VALID,76.1046,VALID,407.309,VALID,23.1136,VALID,91,VALID,2.38398,
2014-08-10, 08:42:04,VALID,918.823,VALID,0,VALID,76.7754,VALID,427.079,VALID,23.1154,VALID,94,VALID,2.17227,
2014-08-10, 08:43:04,VALID,918.829,VALID,0,VALID,75.2507,VALID,425.574,VALID,23.1917,VALID,100,VALID,1.81211,
2014-08-10, 08:44:04,VALID,918.851,VALID,0,VALID,75.9063,VALID,419.773,VALID,23.252,VALID,122,VALID,1.81445,
2014-08-10, 08:45:04,VALID,918.862,VALID,0,VALID,75.2584,VALID,148.913,VALID,23.2502,VALID,115,VALID,2.52461,
2014-08-10, 08:46:04,VALID,918.91,VALID,0,VALID,75.0906,VALID,148.054,VALID,23.1136,VALID,121,VALID,2.28945,
2014-08-10, 08:47:04,VALID,918.91,VALID,0,VALID,74.8543,VALID,157.938,VALID,22.9965,VALID,145,VALID,2.88242,
2014-08-10, 08:48:04,VALID,918.971,VALID,0,VALID,77.431,VALID,248.082,VALID,22.9575,VALID,112,VALID,1.88008,
2014-08-10, 08:49:04,VALID,918.996,VALID,0,VALID,75.7768,VALID,378.515,VALID,22.9575,VALID,114,VALID,2.28125,
2014-08-10, 08:50:04,VALID,919.035,VALID,0,VALID,74.435,VALID,193.072,VALID,22.9965,VALID,147,VALID,1.44062,
2014-08-10, 08:51:04,VALID,919.036,VALID,0,VALID,76.4934,VALID,145.69,VALID,23.0551,VALID,62,VALID,2.38008,
2014-08-10, 08:52:04,VALID,919.076,VALID,0,VALID,74.5341,VALID,166.426,VALID,23.0746,VALID,93,VALID,3.12578,
2014-08-10, 08:53:04,VALID,919.046,VALID,0,VALID,75.609,VALID,127.425,VALID,23.016,VALID,71,VALID,2.7043,
2014-08-10, 08:54:04,VALID,919.129,VALID,0,VALID,76.501,VALID,123.557,VALID,22.938,VALID,99,VALID,2.18242,
2014-08-10, 08:55:04,VALID,919.167,VALID,0,VALID,77.5225,VALID,146.872,VALID,22.8582,VALID,80,VALID,1.03047,
2014-08-10, 08:56:04,VALID,919.191,VALID,0,VALID,75.6624,VALID,199.733,VALID,22.8404,VALID,141,VALID,2.58711,
2014-08-10, 08:57:04,VALID,919.222,VALID,0,VALID,76.5467,VALID,384.854,VALID,22.8404,VALID,69,VALID,1.95313,
2014-08-10, 08:58:04,VALID,919.233,VALID,0,VALID,78.0028,VALID,175.989,VALID,22.8582,VALID,66,VALID,2.39922,
2014-08-10, 08:59:04,VALID,919.223,VALID,0,VALID,76.7907,VALID,146.979,VALID,22.8582,VALID,32,VALID,3.03906,
2014-08-10, 09:00:04,VALID,919.276,VALID,0,VALID,75.2202,VALID,136.45,VALID,22.8989,VALID,108,VALID,1.45313,
2014-08-10, 09:01:04,VALID,919.299,VALID,0,VALID,75.1516,VALID,136.343,VALID,22.8599,VALID,154,VALID,2.89922,
2014-08-10, 09:02:04,VALID,919.3,VALID,0,VALID,76.1579,VALID,132.905,VALID,22.8404,VALID,135,VALID,1.90586,
2014-08-10, 09:03:04,VALID,919.29,VALID,0,VALID,77.3472,VALID,137.954,VALID,22.7801,VALID,50,VALID,2.14023,
2014-08-10, 09:04:04,VALID,919.331,VALID,0,VALID,77.0956,VALID,167.501,VALID,22.7818,VALID,107,VALID,1.62031,
2014-08-10, 09:05:04,VALID,919.36,VALID,0,VALID,77.4844,VALID,192.32,VALID,22.7411,VALID,108,VALID,1.42617,
2014-08-10, 09:06:04,VALID,919.337,VALID,0,VALID,77.21,VALID,157.938,VALID,22.7428,VALID,102,VALID,1.37891,
2014-08-10, 09:07:04,VALID,919.316,VALID,0,VALID,76.2113,VALID,146.979,VALID,22.7233,VALID,128,VALID,2.5043,
2014-08-10, 09:08:04,VALID,919.313,VALID,0,VALID,75.7691,VALID,152.137,VALID,22.6825,VALID,127,VALID,3.28672,
2014-08-10, 09:09:04,VALID,919.263,VALID,0,VALID,76.3104,VALID,156.972,VALID,22.6843,VALID,128,VALID,2.08125,
2014-08-10, 09:10:04,VALID,919.279,VALID,0,VALID,77.1261,VALID,179.427,VALID,22.6647,VALID,127,VALID,2.8668,
2014-08-10, 09:11:04,VALID,919.279,VALID,0,VALID,76.3028,VALID,180.394,VALID,22.6647,VALID,126,VALID,2.24688,
2014-08-10, 09:12:04,VALID,919.295,VALID,0,VALID,77.7436,VALID,177.708,VALID,22.6647,VALID,138,VALID,0.950781,
2014-08-10, 09:13:04,VALID,919.3,VALID,0,VALID,77.5911,VALID,197.584,VALID,22.663,VALID,123,VALID,1.76367,
2014-08-10, 09:14:04,VALID,919.275,VALID,0,VALID,76.9584,VALID,218.858,VALID,22.663,VALID,76,VALID,3.04961,
2014-08-10, 09:15:04,VALID,919.24,VALID,0,VALID,76.7907,VALID,202.527,VALID,22.7216,VALID,139,VALID,1.7043,
2014-08-10, 09:16:04,VALID,919.253,VALID,0,VALID,77.1109,VALID,173.41,VALID,22.7216,VALID,124,VALID,1.90352,
2014-08-10, 09:17:04,VALID,919.229,VALID,0,VALID,75.9902,VALID,265.487,VALID,22.7233,VALID,156,VALID,3.61523,
2014-08-10, 09:18:04,VALID,919.233,VALID,0,VALID,75.5404,VALID,266.776,VALID,22.7233,VALID,115,VALID,2.93672,
2014-08-10, 09:19:04,VALID,919.225,VALID,0,VALID,77.0117,VALID,287.942,VALID,22.7428,VALID,116,VALID,2.39414,
2014-08-10, 09:20:04,VALID,919.208,VALID,0,VALID,76.8821,VALID,290.306,VALID,22.8014,VALID,106,VALID,0.875391,
2014-08-10, 09:21:04,VALID,919.233,VALID,0,VALID,76.7068,VALID,272.686,VALID,22.8582,VALID,68,VALID,1.175,
2014-08-10, 09:22:04,VALID,919.244,VALID,0,VALID,76.1503,VALID,643.895,VALID,22.9965,VALID,100,VALID,1.36523,
2014-08-10, 09:23:04,VALID,919.218,VALID,0,VALID,76.2037,VALID,623.159,VALID,23.1899,VALID,94,VALID,0.967188,
2014-08-10, 09:24:04,VALID,919.232,VALID,0,VALID,73.4287,VALID,366.804,VALID,23.4259,VALID,144,VALID,2.40664,
2014-08-10, 09:25:04,VALID,919.21,VALID,0,VALID,75.5023,VALID,600.274,VALID,23.5022,VALID,110,VALID,1.6418,
2014-08-10, 09:26:04,VALID,919.229,VALID,0,VALID,73.6193,VALID,601.67,VALID,23.6602,VALID,113,VALID,2.34961,
2014-08-10, 09:27:04,VALID,919.192,VALID,0,VALID,74.4427,VALID,596.298,VALID,23.7187,VALID,77,VALID,2.80703,
2014-08-10, 09:28:04,VALID,919.265,VALID,0,VALID,75.9445,VALID,489.072,VALID,23.834,VALID,109,VALID,1.72539,
2014-08-10, 09:29:04,VALID,919.239,VALID,0,VALID,73.8404,VALID,598.662,VALID,23.8731,VALID,133,VALID,2.74414,
2014-08-10, 09:30:04,VALID,919.201,VALID,0,VALID,72.857,VALID,627.564,VALID,23.9707,VALID,112,VALID,1.81641,
2014-08-10, 09:31:04,VALID,919.22,VALID,0,VALID,71.1417,VALID,603.712,VALID,23.9512,VALID,146,VALID,2.71211,
2014-08-10, 09:32:04,VALID,919.245,VALID,0,VALID,71.7821,VALID,603.497,VALID,23.8926,VALID,96,VALID,3.61172,
2014-08-10, 09:33:04,VALID,919.263,VALID,0,VALID,72.9561,VALID,271.719,VALID,23.795,VALID,94,VALID,2.28555,
2014-08-10, 09:34:04,VALID,919.286,VALID,0,VALID,73.0933,VALID,177.278,VALID,23.795,VALID,94,VALID,2.02422,
2014-08-10, 09:35:04,VALID,919.364,VALID,0,VALID,74.0615,VALID,172.55,VALID,23.7169,VALID,126,VALID,2.08398,
2014-08-10, 09:36:04,VALID,919.343,VALID,0,VALID,73.627,VALID,174.377,VALID,23.6016,VALID,95,VALID,1.88477,
2014-08-10, 09:37:04,VALID,919.384,VALID,0,VALID,74.9306,VALID,210.047,VALID,23.4845,VALID,96,VALID,1.59609,
2014-08-10, 09:38:04,VALID,919.379,VALID,0,VALID,74.3664,VALID,689.128,VALID,23.4827,VALID,99,VALID,1.30391,
2014-08-10, 09:39:04,VALID,919.359,VALID,0,VALID,72.5216,VALID,185.229,VALID,23.6016,VALID,103,VALID,1.67969,
2014-08-10, 09:40:04,VALID,919.419,VALID,0,VALID,75.2507,VALID,396.028,VALID,23.6016,VALID,102,VALID,1.91953,
2014-08-10, 09:41:04,VALID,919.474,VALID,0,VALID,74.7933,VALID,166.211,VALID,23.6211,VALID,77,VALID,1.0418,
2014-08-10, 09:42:04,VALID,919.474,VALID,0,VALID,73.5812,VALID,165.997,VALID,23.6016,VALID,102,VALID,1.16484,
2014-08-10, 09:43:04,VALID,919.474,VALID,0,VALID,72.8265,VALID,224.659,VALID,23.5235,VALID,147,VALID,2.17461,
2014-08-10, 09:44:04,VALID,919.514,VALID,0,VALID,72.9027,VALID,210.8,VALID,23.4241,VALID,150,VALID,3.61211,
2014-08-10, 09:45:04,VALID,919.492,VALID,0,VALID,73.6498,VALID,203.279,VALID,23.3656,VALID,102,VALID,2.18359,
2014-08-10, 09:46:04,VALID,919.521,VALID,0,VALID,74.9382,VALID,178.567,VALID,23.3674,VALID,90,VALID,2.14805,
2014-08-10, 09:47:04,VALID,919.533,VALID,0,VALID,74.496,VALID,173.947,VALID,23.3674,VALID,125,VALID,0.933984,
2014-08-10, 09:48:04,VALID,919.541,VALID,0,VALID,73.8709,VALID,182.113,VALID,23.3674,VALID,95,VALID,0.795313,
2014-08-10, 09:49:04,VALID,919.506,VALID,0,VALID,75.731,VALID,224.874,VALID,23.4437,VALID,95,VALID,0.419531,
2014-08-10, 09:50:04,VALID,919.556,VALID,0,VALID,72.9637,VALID,195.435,VALID,23.5626,VALID,70,VALID,2.38516,
2014-08-10, 09:51:04,VALID,919.557,VALID,0,VALID,73.0933,VALID,170.187,VALID,23.5235,VALID,88,VALID,1.51641,
2014-08-10, 09:52:04,VALID,919.56,VALID,0,VALID,73.3754,VALID,171.046,VALID,23.504,VALID,99,VALID,0.871875,
2014-08-10, 09:53:04,VALID,919.541,VALID,0,VALID,74.5723,VALID,630.68,VALID,23.5235,VALID,53,VALID,1.74805,
2014-08-10, 09:54:04,VALID,919.528,VALID,0,VALID,74.5494,VALID,658.829,VALID,23.5626,VALID,51,VALID,2.29766,
2014-08-10, 09:55:04,VALID,919.529,VALID,0,VALID,72.0413,VALID,640.779,VALID,23.7382,VALID,63,VALID,2.57188,
2014-08-10, 09:56:04,VALID,919.461,VALID,0,VALID,72.9561,VALID,589.315,VALID,23.8554,VALID,56,VALID,3.30586,
2014-08-10, 09:57:04,VALID,919.485,VALID,0,VALID,71.744,VALID,578.356,VALID,23.953,VALID,71,VALID,2.58125,
2014-08-10, 09:58:04,VALID,919.529,VALID,0,VALID,69.4569,VALID,248.834,VALID,23.953,VALID,75,VALID,3.60391,
2014-08-10, 09:59:04,VALID,919.486,VALID,0,VALID,70.2574,VALID,638.093,VALID,23.9121,VALID,46,VALID,3.57656,
2014-08-10, 10:00:04,VALID,919.491,VALID,0,VALID,71.5076,VALID,647.118,VALID,23.992,VALID,50,VALID,3.5582,
2014-08-10, 10:01:04,VALID,919.483,VALID,0,VALID,71.0426,VALID,656.358,VALID,24.0488,VALID,23,VALID,3.92383,
2014-08-10, 10:02:04,VALID,919.553,VALID,0,VALID,69.1825,VALID,671.722,VALID,24.1854,VALID,69,VALID,3.30977,
2014-08-10, 10:03:04,VALID,919.524,VALID,0,VALID,68.9157,VALID,685.582,VALID,24.2245,VALID,102,VALID,2.00391,
2014-08-10, 10:04:04,VALID,919.513,VALID,0,VALID,69.9372,VALID,627.886,VALID,24.3026,VALID,56,VALID,2.32773,
2014-08-10, 10:05:04,VALID,919.498,VALID,0,VALID,70.204,VALID,692.888,VALID,24.4002,VALID,53,VALID,1.83984,
2014-08-10, 10:06:04,VALID,919.502,VALID,0,VALID,68.2143,VALID,692.351,VALID,24.5564,VALID,36,VALID,3.59414,
2014-08-10, 10:07:04,VALID,919.539,VALID,0,VALID,69.5637,VALID,641.209,VALID,24.5954,VALID,48,VALID,3.42891,
2014-08-10, 10:08:04,VALID,919.602,VALID,0,VALID,68.9004,VALID,754.129,VALID,24.6149,VALID,15,VALID,1.48945,
2014-08-10, 10:09:04,VALID,919.496,VALID,0,VALID,67.7722,VALID,778.841,VALID,24.8688,VALID,38,VALID,4.71445,
2014-08-10, 10:10:04,VALID,919.518,VALID,0,VALID,66.2322,VALID,791.304,VALID,24.8688,VALID,61,VALID,1.74648,
2014-08-10, 10:11:04,VALID,919.512,VALID,0,VALID,65.8587,VALID,787.006,VALID,24.8297,VALID,47,VALID,2.90273,
2014-08-10, 10:12:04,VALID,919.486,VALID,0,VALID,66.7964,VALID,533.553,VALID,24.693,VALID,27,VALID,2.80859,
2014-08-10, 10:13:04,VALID,919.437,VALID,0,VALID,68.7175,VALID,775.403,VALID,24.7126,VALID,80,VALID,1.66445,
2014-08-10, 10:14:04,VALID,919.402,VALID,0,VALID,70.8901,VALID,805.057,VALID,24.7907,VALID,70,VALID,1.62422,
2014-08-10, 10:15:04,VALID,919.405,VALID,0,VALID,69.7466,VALID,828.801,VALID,24.9469,VALID,27,VALID,1.92891,
2014-08-10, 10:16:04,VALID,919.419,VALID,0,VALID,67.4672,VALID,861.785,VALID,25.1617,VALID,59,VALID,2.00273,
2014-08-10, 10:17:04,VALID,919.417,VALID,0,VALID,72.0565,VALID,884.563,VALID,25.3179,VALID,42,VALID,1.31016,
2014-08-10, 10:18:04,VALID,919.396,VALID,0,VALID,70.387,VALID,908.952,VALID,25.4527,VALID,86,VALID,1.43984,
2014-08-10, 10:19:04,VALID,919.349,VALID,0,VALID,66.4609,VALID,719.319,VALID,25.7066,VALID,98,VALID,2.16484,
2014-08-10, 10:20:04,VALID,919.362,VALID,0,VALID,67.5282,VALID,851.471,VALID,25.9019,VALID,125,VALID,1.07305,
2014-08-10, 10:21:04,VALID,919.363,VALID,0,VALID,64.4712,VALID,932.911,VALID,25.9429,VALID,122,VALID,1.73711,
2014-08-10, 10:22:04,VALID,919.308,VALID,0,VALID,65.2107,VALID,885.852,VALID,26.021,VALID,93,VALID,2.21641,
2014-08-10, 10:23:04,VALID,919.31,VALID,0,VALID,63.0152,VALID,857.595,VALID,25.9995,VALID,60,VALID,4.0832,
2014-08-10, 10:24:04,VALID,919.285,VALID,0,VALID,65.2031,VALID,837.504,VALID,25.8823,VALID,60,VALID,3.71367,
2014-08-10, 10:25:04,VALID,919.272,VALID,0,VALID,65.7901,VALID,846.636,VALID,25.7085,VALID,51,VALID,4.03789,
2014-08-10, 10:26:04,VALID,919.265,VALID,0,VALID,70.1507,VALID,840.62,VALID,25.7085,VALID,56,VALID,1.76211,
2014-08-10, 10:27:04,VALID,919.278,VALID,0,VALID,66.9183,VALID,835.892,VALID,25.9019,VALID,89,VALID,1.9332,
2014-08-10, 10:28:04,VALID,919.271,VALID,0,VALID,63.282,VALID,856.628,VALID,26.0601,VALID,149,VALID,1.13594,
2014-08-10, 10:29:04,VALID,919.284,VALID,0,VALID,62.4434,VALID,864.794,VALID,26.1382,VALID,77,VALID,2.48867,
2014-08-10, 10:30:04,VALID,919.291,VALID,0,VALID,63.0075,VALID,884.563,VALID,26.1773,VALID,92,VALID,1.81953,
2014-08-10, 10:31:04,VALID,919.286,VALID,0,VALID,65.9502,VALID,898.53,VALID,26.2164,VALID,10,VALID,2.47969,
2014-08-10, 10:32:04,VALID,919.313,VALID,0,VALID,61.9936,VALID,896.274,VALID,26.3726,VALID,125,VALID,1.62422,
2014-08-10, 10:33:04,VALID,919.289,VALID,0,VALID,62.8322,VALID,889.828,VALID,26.2359,VALID,126,VALID,2.70977,
2014-08-10, 10:34:04,VALID,919.291,VALID,0,VALID,64.7533,VALID,875.968,VALID,26.2164,VALID,121,VALID,2.44492,
2014-08-10, 10:35:04,VALID,919.276,VALID,0,VALID,65.6452,VALID,858.24,VALID,26.2945,VALID,79,VALID,2.45352,
2014-08-10, 10:36:04,VALID,919.274,VALID,0,VALID,62.6111,VALID,872.315,VALID,26.2534,VALID,55,VALID,3.09531,
2014-08-10, 10:37:04,VALID,919.322,VALID,0,VALID,64.6694,VALID,869.414,VALID,26.0776,VALID,66,VALID,1.29297,
2014-08-10, 10:38:04,VALID,919.267,VALID,0,VALID,64.9363,VALID,865.546,VALID,26.1187,VALID,69,VALID,3.47813,
2014-08-10, 10:39:04,VALID,919.248,VALID,0,VALID,62.4129,VALID,870.596,VALID,25.8823,VALID,66,VALID,4.25977,
2014-08-10, 10:40:04,VALID,919.273,VALID,0,VALID,64.9058,VALID,895.952,VALID,25.6089,VALID,65,VALID,4.4207,
2014-08-10, 10:41:04,VALID,919.3,VALID,0,VALID,63.4573,VALID,622.729,VALID,25.5894,VALID,51,VALID,4.96836,